FW6253 Weather Reports


Display with metric or nautical units.
time (UTC)temp
F
wind
direction
speed
MPH
gust
MPH
rain 1hr
in
rain 24hr
in
rain mn
in
humidity
%
barometer
mb
20260904212054 91 157 1.0 5.0 0.00 0.00 0.00 60 1011.8
20260904211604 91 160 2.0 5.0 0.00 0.00 0.00 61 1011.9
20260904211052 91 190 1.0 7.0 0.00 0.00 0.00 60 1012.0
20260904210551 91 121 1.0 7.0 0.00 0.00 0.00 61 1012.2
20260904210104 91 126 1.0 6.0 0.00 0.00 0.00 62 1012.1
20260904205556 91 0 0.0 4.0 0.00 0.00 0.00 62 1012.2
20260904205054 91 0 0.0 4.0 0.00 0.00 0.00 62 1012.2
20260904204600 91 139 0.0 8.0 0.00 0.00 0.00 62 1012.3
20260904204055 91 119 0.0 8.0 0.00 0.00 0.00 62 1012.3
20260904203554 91 136 1.0 7.0 0.00 0.00 0.00 63 1012.5
20260904203059 90 116 1.0 7.0 0.00 0.00 0.00 63 1012.5
20260904202558 90 114 2.0 7.0 0.00 0.00 0.00 62 1012.4
20260904202053 90 138 0.0 5.0 0.00 0.00 0.00 63 1012.5
20260904201600 90 0 1.0 5.0 0.00 0.00 0.00 64 1012.5
20260904201051 90 0 1.0 8.0 0.00 0.00 0.00 64 1012.6
20260904200551 89 115 2.0 8.0 0.00 0.00 0.00 64 1012.7
20260904200115 89 136 2.0 8.0 0.00 0.00 0.00 65 1012.7
20260904195557 89 0 2.0 8.0 0.00 0.00 0.00 67 1012.7
20260904195055 89 162 1.0 8.0 0.00 0.00 0.00 66 1012.8
20260904194558 89 90 2.0 8.0 0.00 0.00 0.00 67 1012.8
20260904194054 89 161 1.0 5.0 0.00 0.00 0.00 67 1012.8
20260904193557 89 156 2.0 7.0 0.00 0.00 0.00 67 1012.9
20260904193058 88 0 2.0 8.0 0.00 0.00 0.00 68 1012.9
20260904192553 88 124 1.0 8.0 0.00 0.00 0.00 68 1012.9
20260904192054 88 121 1.0 8.0 0.00 0.00 0.00 68 1012.9
20260904191600 88 0 2.0 8.0 0.00 0.00 0.00 68 1013.1
20260904191055 88 113 1.0 8.0 0.00 0.00 0.00 70 1013.2
20260904190552 88 134 0.0 5.0 0.00 0.00 0.00 70 1013.2
20260904185554 87 123 1.0 7.0 0.00 0.00 0.00 71 1013.3
20260904185054 87 0 2.0 7.0 0.00 0.00 0.00 71 1013.3
20260904184616 87 0 2.0 7.0 0.00 0.00 0.00 72 1013.4
20260904184054 87 95 1.0 7.0 0.00 0.00 0.00 72 1013.4
20260904183556 87 127 1.0 7.0 0.00 0.00 0.00 72 1013.4
20260904183057 87 0 2.0 7.0 0.00 0.00 0.00 72 1013.5
20260904182555 86 127 1.0 5.0 0.00 0.00 0.00 72 1013.5
20260904182054 86 89 2.0 6.0 0.00 0.00 0.00 72 1013.4
20260904181601 86 0 1.0 6.0 0.00 0.00 0.00 72 1013.6
20260904181053 86 0 0.0 7.0 0.00 0.00 0.00 73 1013.6
20260904180553 86 119 2.0 7.0 0.00 0.00 0.00 72 1013.7
20260904180105 86 0 1.0 7.0 0.00 0.00 0.00 72 1013.7
20260904175554 86 0 2.0 7.0 0.00 0.00 0.00 72 1013.8
20260904175054 86 173 2.0 6.0 0.00 0.00 0.00 72 1013.8
20260904174601 86 128 1.0 5.0 0.00 0.00 0.00 72 1013.7
20260904174053 86 126 1.0 5.0 0.00 0.00 0.00 72 1013.8
20260904173554 86 131 1.0 9.0 0.00 0.00 0.00 72 1013.9
20260904173110 87 187 3.0 9.0 0.00 0.00 0.00 71 1014.0
20260904172552 87 177 2.0 10.0 0.00 0.00 0.00 71 1014.0
20260904172051 87 130 3.0 10.0 0.00 0.00 0.00 71 1014.0
20260904171600 87 161 2.0 8.0 0.00 0.00 0.00 72 1014.1
20260904171055 87 223 1.0 7.0 0.00 0.00 0.00 73 1014.1
20260904170553 86 150 2.0 8.0 0.00 0.00 0.00 74 1014.1
20260904170101 86 159 2.0 9.0 0.00 0.00 0.00 73 1014.1
20260904165555 86 206 3.0 9.0 0.00 0.00 0.00 73 1014.2
20260904165054 86 156 2.0 8.0 0.00 0.00 0.00 75 1014.2
20260904164602 85 99 2.0 8.0 0.00 0.00 0.00 75 1014.3
20260904164052 85 144 1.0 8.0 0.00 0.00 0.00 76 1014.3
20260904163551 85 157 0.0 7.0 0.00 0.00 0.00 76 1014.4
20260904163104 85 166 2.0 7.0 0.00 0.00 0.00 77 1014.3
20260904162554 85 104 1.0 8.0 0.00 0.00 0.00 77 1014.4
20260904162053 84 194 2.0 8.0 0.00 0.00 0.00 78 1014.4
20260904161606 84 144 1.0 4.0 0.00 0.00 0.00 81 1014.4
20260904161053 83 0 0.0 6.0 0.00 0.00 0.00 82 1014.4
20260904160553 83 160 2.0 6.0 0.00 0.00 0.00 82 1014.4
20260904160107 82 0 0.0 4.0 0.00 0.00 0.00 83 1014.4
20260904155551 82 0 0.0 4.0 0.00 0.00 0.00 84 1014.4
20260904155056 82 0 1.0 4.0 0.00 0.00 0.00 84 1014.3
20260904154616 81 165 0.0 4.0 0.00 0.00 0.00 85 1014.2
20260904154054 81 0 0.0 8.0 0.00 0.00 0.00 85 1014.2
20260904153554 81 198 0.0 8.0 0.00 0.00 0.00 86 1014.1
20260904153103 81 194 3.0 8.0 0.00 0.00 0.00 85 1014.0
20260904152553 81 143 1.0 5.0 0.00 0.00 0.00 86 1014.1
20260904152051 81 0 1.0 5.0 0.00 0.00 0.00 87 1013.9
20260904151602 80 0 1.0 5.0 0.00 0.00 0.00 87 1013.9
20260904151051 80 0 2.0 7.0 0.00 0.00 0.00 88 1013.9
20260904150559 80 189 2.0 7.0 0.00 0.00 0.00 88 1013.9
20260904145554 80 160 1.0 6.0 0.00 0.00 0.00 89 1014.1
20260904145054 80 222 2.0 5.0 0.00 0.00 0.00 89 1013.9
20260904144603 80 174 0.0 6.0 0.00 0.00 0.00 89 1013.9
20260904144052 79 175 3.0 6.0 0.00 0.00 0.00 89 1013.8
20260904143552 79 134 1.0 5.0 0.00 0.00 0.00 90 1013.9
20260904143102 79 155 0.0 4.0 0.00 0.00 0.00 90 1013.9
20260904142553 79 0 0.0 5.0 0.00 0.00 0.00 90 1013.7
20260904142053 79 0 1.0 8.0 0.00 0.00 0.00 90 1013.7
20260904141604 79 0 2.0 8.0 0.00 0.00 0.00 90 1013.8
20260904141054 79 161 2.0 8.0 0.00 0.00 0.00 90 1013.9
20260904140554 79 159 4.0 8.0 0.00 0.00 0.00 90 1013.8
20260904140108 79 142 1.0 7.0 0.00 0.00 0.00 90 1013.8
20260904135554 79 161 1.0 9.0 0.00 0.00 0.00 90 1013.8
20260904135054 78 153 1.0 9.0 0.00 0.00 0.00 91 1013.8
20260904134612 78 164 2.0 9.0 0.00 0.00 0.00 90 1013.6
20260904134053 78 158 2.0 8.0 0.00 0.00 0.00 91 1013.6
20260904133553 78 165 2.0 8.0 0.00 0.00 0.00 91 1013.5
20260904133059 78 139 1.0 4.0 0.00 0.00 0.00 91 1013.6
20260904132552 78 117 1.0 5.0 0.00 0.00 0.00 91 1013.5
20260904132051 78 0 1.0 6.0 0.00 0.00 0.00 91 1013.5
20260904131603 78 0 2.0 6.0 0.00 0.00 0.00 91 1013.4
20260904131051 78 145 2.0 6.0 0.00 0.00 0.00 91 1013.4
20260904130554 78 0 1.0 8.0 0.00 0.00 0.00 91 1013.4
20260904130100 78 0 1.0 8.0 0.00 0.00 0.00 91 1013.3
20260904125554 78 0 2.0 8.0 0.00 0.00 0.00 90 1013.2
20260904125054 78 128 2.0 7.0 0.00 0.00 0.00 91 1013.2
20260904124613 78 0 2.0 6.0 0.00 0.00 0.00 90 1013.3
20260904124053 78 0 1.0 6.0 0.00 0.00 0.00 90 1013.2
20260904123555 78 110 1.0 7.0 0.00 0.00 0.00 90 1013.1
20260904123111 78 132 1.0 7.0 0.00 0.00 0.00 90 1013.0
20260904122553 78 131 1.0 6.0 0.00 0.00 0.00 90 1013.0
20260904122053 78 123 2.0 6.0 0.00 0.00 0.00 90 1013.0
20260904121558 78 116 1.0 5.0 0.00 0.00 0.00 90 1013.0
20260904121054 78 0 0.0 6.0 0.00 0.00 0.00 90 1012.9
20260904120552 78 121 1.0 6.0 0.00 0.00 0.00 90 1012.8
20260904120057 78 108 0.0 6.0 0.00 0.00 0.00 90 1012.9
20260904115555 78 122 1.0 5.0 0.00 0.00 0.00 90 1012.8
20260904115057 78 0 1.0 5.0 0.00 0.00 0.00 90 1012.8
20260904114604 78 153 1.0 5.0 0.00 0.00 0.00 90 1012.7
20260904114054 78 0 0.0 6.0 0.00 0.00 0.00 90 1012.5
20260904113554 78 0 1.0 6.0 0.00 0.00 0.00 89 1012.4
20260904113108 78 0 2.0 5.0 0.00 0.00 0.00 89 1012.4
20260904112551 78 140 0.0 3.0 0.00 0.00 0.00 89 1012.3
20260904112053 78 0 1.0 4.0 0.00 0.00 0.00 89 1012.2
20260904111557 78 0 0.0 4.0 0.00 0.00 0.00 89 1012.3
20260904111053 78 0 0.0 4.0 0.00 0.00 0.00 89 1012.3
20260904110553 78 142 1.0 4.0 0.00 0.00 0.00 89 1012.4
20260904110106 78 138 1.0 4.0 0.00 0.00 0.00 89 1012.3
20260904105555 78 156 1.0 5.0 0.00 0.00 0.00 89 1012.3
20260904105056 78 0 1.0 5.0 0.00 0.00 0.00 89 1012.3
20260904104600 78 145 1.0 5.0 0.00 0.00 0.00 89 1012.3
20260904104053 78 152 1.0 5.0 0.00 0.00 0.00 89 1012.2
20260904103553 78 149 0.0 5.0 0.00 0.00 0.00 89 1012.1
20260904103101 78 0 1.0 8.0 0.00 0.00 0.00 89 1012.2
20260904102557 78 183 3.0 8.0 0.00 0.00 0.00 89 1012.1
20260904102054 78 163 1.0 5.0 0.00 0.00 0.00 89 1012.1
20260904101558 78 0 1.0 5.0 0.00 0.00 0.00 89 1012.0
20260904101053 78 163 1.0 6.0 0.00 0.00 0.00 89 1012.0
20260904100556 78 163 0.0 6.0 0.00 0.00 0.00 89 1012.1
20260904100106 78 162 1.0 6.0 0.00 0.00 0.00 89 1012.0
20260904095554 78 0 1.0 5.0 0.00 0.00 0.00 89 1012.1
20260904095055 78 181 1.0 5.0 0.00 0.00 0.00 89 1012.0
20260904094612 78 181 2.0 5.0 0.00 0.00 0.00 89 1012.1
20260904094056 78 178 1.0 6.0 0.00 0.00 0.00 89 1012.0
20260904093554 78 175 2.0 6.0 0.00 0.00 0.00 89 1012.0
20260904093106 78 167 1.0 5.0 0.00 0.00 0.00 89 1012.0
20260904092553 78 0 2.0 5.0 0.00 0.00 0.00 89 1012.1
20260904092051 78 190 0.0 3.0 0.00 0.00 0.00 88 1011.9
20260904091604 78 190 1.0 5.0 0.00 0.00 0.00 88 1011.9
20260904091055 78 190 1.0 5.0 0.00 0.00 0.00 88 1012.0
20260904090553 78 0 1.0 4.0 0.00 0.00 0.00 88 1012.0
20260904090108 78 0 1.0 7.0 0.00 0.00 0.00 88 1012.0
20260904085553 78 206 2.0 7.0 0.00 0.00 0.00 88 1012.0
20260904085056 78 186 1.0 5.0 0.00 0.00 0.00 88 1011.9
20260904084601 78 0 1.0 5.0 0.00 0.00 0.00 87 1011.9
20260904084051 78 184 1.0 5.0 0.00 0.00 0.00 87 1011.9
20260904083553 78 180 0.0 5.0 0.00 0.00 0.00 87 1012.0
20260904083147 78 180 1.0 5.0 0.00 0.00 0.00 87 1011.9
20260904082554 79 182 0.0 5.0 0.00 0.00 0.00 87 1012.0
20260904082053 79 183 1.0 3.0 0.00 0.00 0.00 87 1011.9
20260904081609 79 0 0.0 4.0 0.00 0.00 0.00 86 1012.0
20260904081053 79 0 1.0 6.0 0.00 0.00 0.00 86 1012.1
20260904080551 79 200 2.0 7.0 0.00 0.00 0.00 86 1012.1
20260904080101 79 170 2.0 7.0 0.00 0.00 0.00 86 1012.1
20260904075552 79 198 1.0 7.0 0.00 0.00 0.00 86 1012.1
20260904075052 79 174 1.0 7.0 0.00 0.00 0.00 86 1012.2
20260904074558 79 193 1.0 7.0 0.00 0.00 0.00 86 1012.1
20260904074053 79 0 1.0 4.0 0.00 0.00 0.00 86 1012.2
20260904073554 79 191 1.0 5.0 0.00 0.00 0.00 85 1012.2
20260904073104 80 199 2.0 5.0 0.00 0.00 0.00 85 1012.3
20260904072553 80 203 0.0 5.0 0.00 0.00 0.00 85 1012.3
20260904072053 80 209 2.0 8.0 0.00 0.00 0.00 85 1012.4
20260904071621 80 207 2.0 8.0 0.00 0.00 0.00 85 1012.6
20260904071054 79 96 1.0 8.0 0.00 0.00 0.00 85 1012.6
20260904070554 80 188 1.0 6.0 0.00 0.00 0.00 85 1012.6
20260904070117 80 0 1.0 6.0 0.00 0.00 0.00 85 1012.6
20260904065551 80 124 0.0 5.0 0.00 0.00 0.00 85 1012.5
20260904065053 80 178 1.0 7.0 0.00 0.00 0.00 85 1012.6
20260904064558 80 0 1.0 9.0 0.00 0.00 0.00 85 1012.6
20260904064055 80 185 3.0 9.0 0.00 0.00 0.00 85 1012.7
20260904063551 80 157 1.0 7.0 0.00 0.00 0.00 85 1012.7
20260904063104 80 189 2.0 7.0 0.00 0.00 0.00 85 1012.7
20260904062556 80 211 0.0 8.0 0.00 0.00 0.00 85 1012.7
20260904062053 80 164 2.0 8.0 0.00 0.00 0.00 85 1012.6
20260904061603 80 215 3.0 11.0 0.00 0.00 0.00 84 1012.7
20260904061053 80 201 2.0 11.0 0.00 0.00 0.00 84 1012.7
20260904060556 80 172 2.0 8.0 0.00 0.00 0.00 84 1012.7
20260904060104 80 218 3.0 10.0 0.00 0.00 0.00 84 1012.8
20260904055553 80 183 3.0 10.0 0.00 0.00 0.00 84 1012.8
20260904055053 80 178 2.0 10.0 0.00 0.00 0.00 84 1012.8
20260904054602 80 165 3.0 9.0 0.00 0.00 0.00 83 1012.8
20260904054053 80 146 3.0 7.0 0.00 0.00 0.00 83 1012.7
20260904053553 80 171 3.0 11.0 0.00 0.00 0.00 83 1012.7
20260904053107 80 155 2.0 11.0 0.00 0.00 0.00 83 1012.6
20260904052554 81 163 3.0 11.0 0.00 0.00 0.00 82 1012.6
20260904052054 81 121 3.0 12.0 0.00 0.00 0.00 82 1012.5
20260904051605 81 130 2.0 12.0 0.00 0.00 0.00 82 1012.6
20260904051053 81 183 3.0 11.0 0.00 0.00 0.00 81 1012.7
20260904050551 81 169 3.0 12.0 0.00 0.00 0.00 81 1012.7
20260904050104 81 157 4.0 12.0 0.00 0.00 0.00 80 1012.5
20260904045552 81 161 3.0 10.0 0.00 0.00 0.00 80 1012.7
20260904045055 81 127 3.0 10.0 0.00 0.00 0.00 79 1012.5
20260904044558 81 204 2.0 8.0 0.00 0.00 0.00 79 1012.5
20260904044053 82 142 2.0 8.0 0.00 0.00 0.00 78 1012.5
20260904043553 82 147 3.0 8.0 0.00 0.00 0.00 78 1012.5
20260904043110 82 153 2.0 12.0 0.00 0.00 0.00 78 1012.4
20260904042558 82 153 3.0 12.0 0.00 0.00 0.00 77 1012.4
20260904042054 82 152 3.0 12.0 0.00 0.00 0.00 77 1012.3
20260904041600 82 173 5.0 12.0 0.00 0.00 0.00 77 1012.4
20260904041051 83 177 2.0 11.0 0.00 0.00 0.00 76 1012.5
20260904040553 83 169 3.0 11.0 0.00 0.00 0.00 76 1012.5
20260904040110 83 143 3.0 11.0 0.00 0.00 0.00 75 1012.3
20260904035553 83 148 2.0 10.0 0.00 0.00 0.00 74 1012.2
20260904035057 83 147 4.0 10.0 0.00 0.00 0.00 74 1012.1
20260904034601 83 139 4.0 11.0 0.00 0.00 0.00 73 1012.1
20260904034053 83 191 3.0 14.0 0.00 0.00 0.00 73 1012.1
20260904033553 84 138 4.0 14.0 0.00 0.00 0.00 72 1012.2
20260904033059 84 171 4.0 14.0 0.00 0.00 0.00 72 1012.1
20260904032553 84 0 2.0 14.0 0.00 0.00 0.00 71 1012.0
20260904032053 84 164 3.0 10.0 0.00 0.00 0.00 70 1012.0
20260904031611 84 148 4.0 11.0 0.00 0.00 0.00 70 1012.0
20260904031052 84 89 3.0 11.0 0.00 0.00 0.00 69 1011.9
20260904030553 84 149 4.0 12.0 0.00 0.00 0.00 69 1011.9
20260904025553 84 135 4.0 12.0 0.00 0.00 0.00 69 1011.5
20260904025054 84 136 1.0 9.0 0.00 0.00 0.00 69 1011.5
20260904024603 85 114 2.0 9.0 0.00 0.00 0.00 69 1011.5
20260904024052 85 84 2.0 8.0 0.00 0.00 0.00 68 1011.5
20260904023555 85 139 1.0 8.0 0.00 0.00 0.00 68 1011.5
20260904023109 85 111 3.0 9.0 0.00 0.00 0.00 68 1011.4
20260904022553 85 116 2.0 9.0 0.00 0.00 0.00 68 1011.4
20260904022053 85 88 3.0 7.0 0.00 0.00 0.00 67 1011.2
20260904021604 85 115 2.0 10.0 0.00 0.00 0.00 67 1011.2
20260904021052 86 163 2.0 10.0 0.00 0.00 0.00 66 1011.1
20260904020553 86 0 2.0 9.0 0.00 0.00 0.00 66 1011.0
20260904020104 86 0 2.0 9.0 0.00 0.00 0.00 66 1010.9
20260904015552 86 111 3.0 8.0 0.00 0.00 0.00 65 1010.8
20260904015052 86 114 1.0 9.0 0.00 0.00 0.00 64 1010.7
20260904014606 86 117 3.0 9.0 0.00 0.00 0.00 64 1010.7
20260904014053 86 130 3.0 9.0 0.00 0.00 0.00 63 1010.7
20260904013553 87 154 2.0 7.0 0.00 0.00 0.00 63 1010.6
20260904013100 87 103 3.0 11.0 0.00 0.00 0.00 63 1010.6
20260904012553 87 121 3.0 11.0 0.00 0.00 0.00 62 1010.6
20260904012053 87 121 4.0 13.0 0.00 0.00 0.00 62 1010.4
20260904011602 87 129 3.0 13.0 0.00 0.00 0.00 62 1010.4
20260904011052 87 89 4.0 13.0 0.00 0.00 0.00 61 1010.4
20260904010552 88 129 4.0 12.0 0.00 0.00 0.00 61 1010.3
20260904010103 88 161 3.0 16.0 0.00 0.00 0.00 61 1010.3
20260904005556 88 134 5.0 16.0 0.00 0.00 0.00 61 1010.3
20260904005053 88 102 5.0 13.0 0.00 0.00 0.00 61 1010.1
20260904004557 89 103 5.0 13.0 0.00 0.00 0.00 61 1009.9
20260904004053 89 144 4.0 14.0 0.00 0.00 0.00 61 1009.9
20260904003552 89 40 6.0 14.0 0.00 0.00 0.00 60 1010.1
20260904003103 89 138 6.0 14.0 0.00 0.00 0.00 60 1010.0
20260904002552 90 93 6.0 14.0 0.00 0.00 0.00 60 1009.9
20260904002054 90 5 6.0 14.0 0.00 0.00 0.00 60 1010.0
20260904001605 91 108 5.0 16.0 0.00 0.00 0.00 59 1009.8
20260904001053 91 65 7.0 19.0 0.00 0.00 0.00 58 1009.8
20260904000553 92 134 9.0 19.0 0.00 0.00 0.00 56 1009.9
20260904000106 93 75 5.0 19.0 0.00 0.00 0.00 54 1009.8
20260903235553 94 83 8.0 18.0 0.00 0.00 0.00 52 1009.6
20260903235053 95 61 6.0 14.0 0.00 0.00 0.00 50 1009.5
20260903234557 96 117 4.0 11.0 0.00 0.00 0.00 50 1009.3
20260903234053 96 179 3.0 12.0 0.00 0.00 0.00 50 1009.3
20260903233552 96 79 5.0 14.0 0.00 0.00 0.00 50 1009.3
20260903233105 96 126 4.0 14.0 0.00 0.00 0.00 49 1009.4
20260903232552 95 127 6.0 15.0 0.00 0.00 0.00 49 1009.4
20260903232053 96 39 5.0 15.0 0.00 0.00 0.00 49 1009.4
20260903231558 96 85 5.0 14.0 0.00 0.00 0.00 48 1009.3
20260903231056 96 90 3.0 12.0 0.00 0.00 0.00 48 1009.2
20260903230553 96 90 4.0 13.0 0.00 0.00 0.00 48 1009.1
20260903230105 96 134 3.0 13.0 0.00 0.00 0.00 48 1009.2
20260903225553 96 98 5.0 13.0 0.00 0.00 0.00 47 1009.1
20260903225053 96 62 6.0 13.0 0.00 0.00 0.00 48 1009.1
20260903224557 96 77 5.0 13.0 0.00 0.00 0.00 48 1009.0
20260903224057 96 131 6.0 15.0 0.00 0.00 0.00 47 1009.1
20260903223556 96 90 6.0 16.0 0.00 0.00 0.00 47 1009.1
20260903223059 97 55 6.0 16.0 0.00 0.00 0.00 47 1009.1
20260903222551 98 158 7.0 16.0 0.00 0.00 0.00 46 1009.1
20260903222053 98 36 6.0 15.0 0.00 0.00 0.00 45 1009.1
20260903221604 99 68 6.0 15.0 0.00 0.00 0.00 45 1009.1
20260903221052 100 78 6.0 15.0 0.00 0.00 0.00 43 1009.2
20260903220556 102 165 7.0 13.0 0.00 0.00 0.00 42 1009.2
20260903220059 102 96 4.0 10.0 0.00 0.00 0.00 40 1009.1
20260903215553 102 105 2.0 7.0 0.00 0.00 0.00 38 1009.0
20260903215053 102 61 2.0 7.0 0.00 0.00 0.00 37 1009.1
20260903214611 102 126 1.0 7.0 0.00 0.00 0.00 40 1009.1
20260903214052 101 197 2.0 9.0 0.00 0.00 0.00 40 1009.2
20260903213552 102 198 3.0 9.0 0.00 0.00 0.00 40 1009.2
20260903213102 102 76 2.0 7.0 0.00 0.00 0.00 40 1009.3
20260903212552 102 130 3.0 7.0 0.00 0.00 0.00 41 1009.3